[[{"header":{"parameterUnit":"m.s-1","parameterCategory":1,"la1":30.2991,"la2":30.254,"lo1":-89.0895,"lo2":-89.0444,"dy":0.0017,"dx":0.0017,"nx":28,"ny":28,"refTime":"2023-07-19T03:00:00:Z","depth":0,"parameterNumber":2,"parameterNumberName":"U-component_of_WINDS"},"data":[0,0,0,0,0,0,0,0,0,0,0,0,0,0,0,0,0,0,0,0,0,0,0,0,0,0,0,0,0,0,0,0,0,0,0,0,0,0,0,0,0,0,0,0,0,0,0,0,0,0,0,0,0,0,0,0,0,0,0.1579,0.1581,0,0.1702,0.1704,0.1705,0.175,0.175,0.1749,0.1749,0.1879,0.1883,0.1887,0,0,0,0,0,0,0,0,0,0,0,0,0,0.1386,0.1389,0.1579,0.1581,0.1582,0.1702,0.1704,0.1706,0.175,0.175,0.1749,0.1749,0.1878,0.1883,0.1887,0,0,0,0,0,0,0,0,0,0,0,0,0,0.1486,0.1391,0.1579,0.1619,0.1624,0.1702,0.1704,0.1706,0.175,0.175,0.1749,0.1749,0.1877,0.1882,0.1888,0.1937,0,0,0.1906,0.1908,0,0,0,0,0,0,0,0,0.148,0.1493,0.1612,0.1616,0.1622,0.171,0.1684,0.1783,0.1751,0.1702,0.1749,0.1748,0.1824,0.1834,0.1859,0.1943,0.1948,0.1906,0.191,0.1912,0.1914,0,0,0,0,0,0,0,0.1473,0.1488,0.1628,0.1613,0.162,0.1632,0.1645,0.1703,0.1765,0.1707,0.171,0.1724,0.1827,0.1853,0.1862,0.195,0.1906,0.1911,0.1915,0.1917,0.208,0.2081,0,0,0,0,0,0,0.1459,0.1482,0.1624,0.1632,0.1548,0.1636,0.1651,0.1683,0.1765,0.1777,0.1724,0.1726,0.1843,0.1855,0.1867,0.1929,0.1912,0.1918,0.1921,0.2079,0.208,0.2081,0,0,0,0,0,0,0.1455,0.1471,0.1619,0.1558,0.1577,0.164,0.1675,0.1685,0.1712,0.1778,0.179,0.1739,0.1843,0.1859,0.1918,0.1934,0.192,0.1926,0.2078,0.2079,0.208,0.2053,0,0,0,0,0,0,0.1449,0.1469,0.1488,0.1558,0.1581,0.1668,0.1676,0.1688,0.1721,0.1724,0.1796,0.1807,0.1844,0.191,0.1924,0.1942,0.193,0.2077,0.2079,0.208,0.2053,0.2053,0.2053,0,0,0,0,0,0.1442,0.1476,0.1489,0.1505,0.1605,0.1668,0.1682,0.1722,0.1722,0.1742,0.1784,0.1805,0.193,0.1915,0.1932,0.1952,0.2076,0.2078,0.208,0.2053,0.2053,0.2053,0,0,0,0,0,0,0.1408,0.1486,0.1501,0.1559,0.1606,0.1676,0.1702,0.1722,0.1772,0.1773,0.1822,0.1838,0.1894,0.1929,0.1912,0.2003,0.2004,0.201,0.1978,0.1979,0.1979,0.197,0.1935,0,0,0,0,0,0.1407,0.1451,0.1518,0.1562,0.1585,0.1639,0.1669,0.1696,0.1748,0.1769,0.1816,0.1867,0.1918,0.195,0.2001,0.2058,0.2074,0.208,0.208,0.208,0.2084,0.2117,0.212,0.2087,0.2087,0.2087,0,0,0.1407,0.1454,0.148,0.1557,0.1597,0.1642,0.1656,0.1704,0.1738,0.1777,0.1835,0.1871,0.1932,0.199,0.2018,0.2021,0.2096,0.2082,0.2082,0.2086,0.2119,0.2122,0.2125,0.2088,0.2088,0.2088,0,0,0.1428,0.1468,0.151,0.1549,0.1609,0.1645,0.1654,0.1721,0.1746,0.1805,0.1835,0.1877,0.1963,0.2005,0.2037,0.2073,0.2093,0.2088,0.209,0.2121,0.2123,0.2126,0.2139,0.2142,0.2092,0.2092,0.2092,0,0.142,0.1488,0.1529,0.1575,0.1608,0.1643,0.1685,0.1722,0.1796,0.1819,0.182,0.1928,0.1972,0.204,0.2048,0.2073,0.2086,0.208,0.2119,0.2122,0.2125,0.2138,0.2143,0.209,0.2091,0.2091,0.2091,0,0.1475,0.1522,0.1548,0.1617,0.1653,0.1697,0.1745,0.1777,0.1801,0.1836,0.1896,0.1948,0.201,0.2028,0.2052,0.21,0.2099,0.2109,0.2112,0.2127,0.2139,0.2145,0.2089,0.2089,0.209,0.209,0,0,0.148,0.1569,0.1578,0.1609,0.1677,0.1715,0.1761,0.1819,0.1845,0.1895,0.1935,0.2006,0.2016,0.2052,0.2082,0.2109,0.2133,0.2116,0.2118,0.2117,0.2188,0.218,0.2185,0.2147,0.2148,0.2149,0.2183,0,0.151,0.1592,0.1629,0.1695,0.1739,0.1772,0.1811,0.1858,0.1892,0.1935,0.1973,0.2023,0.2031,0.2054,0.2082,0.2124,0.2148,0.2122,0.2185,0.2187,0.2169,0.2192,0.2184,0.2214,0.2189,0.2189,0.219,0,0.1557,0.1604,0.1673,0.1735,0.1755,0.179,0.1846,0.1887,0.194,0.1963,0.2003,0.2031,0.2081,0.2079,0.2149,0.213,0.2158,0.2182,0.2185,0.2193,0.219,0.2201,0.2225,0.2229,0.2198,0.2198,0.2197,0,0.1553,0.1635,0.1687,0.1712,0.1786,0.181,0.1842,0.1894,0.1927,0.1976,0.1998,0.2053,0.2083,0.2125,0.2167,0.2162,0.2233,0.2235,0.2254,0.2253,0.2268,0.2266,0.2297,0.2285,0.2285,0.2285,0.2285,0,0.1583,0.1624,0.1686,0.1718,0.1764,0.1807,0.1853,0.1888,0.1934,0.1974,0.2006,0.2043,0.2096,0.214,0.2173,0.2226,0.2239,0.226,0.2268,0.2257,0.2254,0.2276,0.2275,0.2286,0.2286,0.2286,0.2285,0,0.1588,0.163,0.1689,0.1753,0.177,0.1802,0.1858,0.189,0.1925,0.1975,0.1989,0.2044,0.2097,0.2143,0.2214,0.2236,0.229,0.23,0.2271,0.2276,0.2292,0.229,0.2339,0.2347,0.2329,0.2329,0.2329,0,0.1604,0.1636,0.1703,0.1731,0.1762,0.1808,0.184,0.1884,0.1917,0.1979,0.2004,0.2059,0.2105,0.2189,0.2236,0.229,0.2302,0.2315,0.231,0.2298,0.2302,0.23,0.2303,0.2315,0.2315,0.2315,0.2315,0,0.1629,0.1648,0.1693,0.1745,0.1783,0.1827,0.1871,0.1893,0.1945,0.198,0.2034,0.2069,0.214,0.2195,0.2253,0.2288,0.231,0.2316,0.2323,0.2312,0.2294,0.2304,0.2272,0.2315,0.2315,0.2315,0.2315,0.2315,0.164,0.167,0.1721,0.177,0.1808,0.1849,0.1882,0.192,0.1965,0.2025,0.2049,0.2103,0.2156,0.2237,0.2271,0.2315,0.2319,0.2329,0.2332,0.2334,0.2332,0.2286,0.2326,0.2326,0.2326,0.2326,0.2326,0,0.1666,0.1701,0.1745,0.1806,0.1845,0.1861,0.1911,0.1942,0.1989,0.2036,0.208,0.2141,0.2194,0.2244,0.23,0.2325,0.2337,0.2338,0.2337,0.2344,0.2326,0.2314,0.2328,0.2328,0.2328,0.2328,0.2328,0.2328,0.1685,0.1736,0.1761,0.1831,0.1865,0.1918,0.1945,0.1983,0.202,0.2087,0.213,0.2162,0.221,0.2269,0.2318,0.2331,0.235,0.2349,0.2365,0.2347,0.2346,0.2345,0.2334,0.2352,0.2352,0.238,0.2381,0.2381]},{"header":{"parameterUnit":"m.s-1","parameterCategory":1,"la1":30.2991,"la2":30.254,"lo1":-89.0895,"lo2":-89.0444,"dy":0.0017,"dx":0.0017,"nx":28,"ny":28,"refTime":"2023-07-19T03:00:00:Z","depth":0,"parameterNumber":3,"parameterNumberName":"V-component_of_WINDS"},"data":[0,0,0,0,0,0,0,0,0,0,0,0,0,0,0,0,0,0,0,0,0,0,0,0,0,0,0,0,0,0,0,0,0,0,0,0,0,0,0,0,0,0,0,0,0,0,0,0,0,0,0,0,0,0,0,0,0,0,3.3246,3.3245,0,3.3177,3.3176,3.3176,3.3194,3.3195,3.3197,3.3198,3.312,3.3117,3.3113,0,0,0,0,0,0,0,0,0,0,0,0,0,3.3385,3.3382,3.3246,3.3245,3.3244,3.3177,3.3176,3.3175,3.3194,3.3195,3.3197,3.3199,3.3121,3.3117,3.3113,0,0,0,0,0,0,0,0,0,0,0,0,0,3.3321,3.3381,3.3246,3.3245,3.3245,3.3178,3.3176,3.3175,3.3193,3.3195,3.3198,3.3199,3.3122,3.3117,3.3112,3.3039,0,0,3.3097,3.3095,0,0,0,0,0,0,0,0,3.3324,3.3316,3.3246,3.3245,3.3244,3.3197,3.3197,3.3129,3.3193,3.3213,3.3198,3.32,3.3143,3.3137,3.3119,3.3036,3.3032,3.3097,3.3093,3.3091,3.309,0,0,0,0,0,0,0,3.3329,3.3319,3.3219,3.3245,3.3244,3.3246,3.3239,3.3184,3.3167,3.3211,3.3212,3.3204,3.3143,3.3124,3.3117,3.3031,3.3097,3.3092,3.3089,3.3087,3.2882,3.288,0,0,0,0,0,0,3.3335,3.3322,3.3221,3.3217,3.3291,3.3242,3.3234,3.321,3.3167,3.3163,3.3203,3.3205,3.3131,3.3123,3.3114,3.3024,3.3091,3.3087,3.3084,3.2885,3.2882,3.2879,0,0,0,0,0,0,3.3338,3.3326,3.3223,3.327,3.3257,3.3237,3.3209,3.3207,3.3188,3.3161,3.3157,3.3187,3.3133,3.3122,3.3058,3.3022,3.3084,3.308,3.2887,3.2884,3.288,3.2845,0,0,0,0,0,0,3.3342,3.3327,3.3301,3.3269,3.3254,3.317,3.3207,3.3204,3.318,3.3183,3.3145,3.3141,3.3133,3.3065,3.3053,3.3016,3.3076,3.289,3.2886,3.2882,3.2849,3.2841,3.2833,0,0,0,0,0,3.3347,3.3292,3.3299,3.3287,3.3222,3.3168,3.316,3.3155,3.3177,3.3149,3.3132,3.3142,3.3029,3.3059,3.3045,3.3006,3.2893,3.2887,3.2882,3.2853,3.2842,3.2833,0,0,0,0,0,0,3.3318,3.3288,3.3296,3.323,3.3202,3.3172,3.3137,3.3144,3.3107,3.3111,3.3104,3.3095,3.303,3.3012,3.3046,3.2932,3.2963,3.2955,3.2946,3.2936,3.2928,3.2933,3.3072,0,0,0,0,0,3.3304,3.3266,3.3241,3.3185,3.3171,3.3156,3.3133,3.3132,3.3101,3.3088,3.3066,3.3034,3.2991,3.2963,3.2922,3.2847,3.2838,3.2813,3.2806,3.2799,3.2791,3.2748,3.2736,3.2861,3.2861,3.2861,0,0,3.3274,3.3254,3.3229,3.3179,3.3157,3.3114,3.3146,3.31,3.3068,3.3081,3.3019,3.3002,3.2965,3.2896,3.2864,3.2878,3.2755,3.2792,3.2787,3.2783,3.2741,3.2729,3.2719,3.2858,3.2858,3.2859,0,0,3.3199,3.318,3.3131,3.3109,3.3076,3.3067,3.3055,3.3024,3.3013,3.2952,3.2961,3.2921,3.2848,3.2821,3.2797,3.2711,3.2718,3.2698,3.2655,3.2613,3.2603,3.2595,3.2562,3.255,3.269,3.269,3.269,0,3.3165,3.3105,3.3104,3.3058,3.3034,3.3046,3.2994,3.2972,3.2926,3.2908,3.2927,3.2834,3.281,3.2734,3.2713,3.2694,3.2678,3.2701,3.2606,3.2597,3.2588,3.2557,3.2544,3.2688,3.2688,3.2689,3.2689,0,3.3064,3.3022,3.2985,3.2943,3.2916,3.2867,3.2856,3.2827,3.2828,3.2816,3.2752,3.2725,3.2678,3.266,3.266,3.2582,3.2592,3.2608,3.2639,3.2574,3.2544,3.2532,3.2685,3.2685,3.2686,3.2687,0,0,3.2967,3.2926,3.2912,3.2893,3.2858,3.2823,3.2774,3.273,3.2705,3.2673,3.2629,3.2567,3.2581,3.2555,3.2552,3.2515,3.2446,3.2535,3.2534,3.2518,3.2356,3.2343,3.2329,3.2451,3.2449,3.2447,3.2358,0,3.2886,3.2802,3.28,3.2721,3.2681,3.2692,3.2648,3.262,3.2607,3.2569,3.2553,3.2509,3.2532,3.2516,3.2481,3.2462,3.2413,3.2469,3.2407,3.2405,3.2414,3.2314,3.23,3.2218,3.2347,3.2345,3.2343,0,3.2781,3.2748,3.2666,3.2636,3.2619,3.258,3.2539,3.2504,3.2471,3.2464,3.2435,3.2437,3.2383,3.2418,3.2342,3.238,3.2354,3.2341,3.2338,3.233,3.2369,3.2301,3.2191,3.2178,3.2325,3.2327,3.2328,0,3.2716,3.2651,3.2593,3.2576,3.254,3.2512,3.2495,3.2466,3.2439,3.2403,3.2385,3.2342,3.2317,3.2283,3.2272,3.2298,3.2195,3.223,3.2185,3.2185,3.2162,3.2163,3.2044,3.2149,3.2149,3.2149,3.2149,0,3.2625,3.2574,3.2563,3.2527,3.247,3.2467,3.2408,3.2393,3.2366,3.2326,3.2332,3.2293,3.2282,3.2241,3.2232,3.2169,3.2158,3.2149,3.2146,3.2147,3.2148,3.2129,3.2133,3.2146,3.2147,3.2147,3.2148,0,3.2542,3.2533,3.247,3.2442,3.2433,3.2392,3.2366,3.233,3.2319,3.2267,3.2254,3.2235,3.2186,3.2173,3.2113,3.2107,3.2033,3.2037,3.2044,3.2044,3.2,3.2003,3.1863,3.1843,3.1963,3.1961,3.1961,0,3.2483,3.2445,3.2412,3.2387,3.237,3.2328,3.2302,3.2297,3.2268,3.2228,3.2196,3.2149,3.2111,3.2031,3.201,3.1964,3.1966,3.192,3.1959,3.196,3.1963,3.1964,3.1959,3.1912,3.1911,3.191,3.1909,0,3.238,3.2378,3.2341,3.2302,3.2271,3.2239,3.2209,3.2187,3.2177,3.2144,3.2096,3.2066,3.2007,3.1958,3.1912,3.1892,3.1897,3.1897,3.1884,3.1883,3.1888,3.1883,3.2022,3.19,3.1901,3.1901,3.1902,3.1902,3.2306,3.2271,3.2244,3.2202,3.2179,3.215,3.2115,3.21,3.206,3.2013,3.2012,3.1958,3.1925,3.1864,3.1841,3.1797,3.181,3.1792,3.1787,3.1782,3.1777,3.1897,3.1789,3.1789,3.1789,3.1789,3.179,0,3.2201,3.2184,3.2146,3.2104,3.2071,3.2083,3.2049,3.2019,3.1973,3.1943,3.1906,3.1849,3.1802,3.1778,3.173,3.17,3.1701,3.1687,3.1688,3.1683,3.1769,3.1784,3.1687,3.1687,3.1687,3.1687,3.1687,3.1687,3.2143,3.2085,3.2079,3.2009,3.1991,3.1941,3.1921,3.1893,3.1869,3.1806,3.1768,3.1754,3.1725,3.1676,3.1632,3.1626,3.1607,3.1591,3.1586,3.1667,3.1677,3.1687,3.1701,3.1588,3.1588,3.1504,3.1503,3.1502]}]]